Regional Weather Roundup
Issued by NWS State College, PA

Home | Current Version | Previous Version | Text Only | Print | Product List | Glossary On
Versions: 1 2 3 4 5 6 7 8 9 10 11 12 13 14 15 16 17 18 19 20 21 22 23 24 25 26 27 28 29 30 31 32 33 34 35 36 37 38 39 40 41 42 43 44 45 46 47 48 49 50
000
ASUS41 KCTP 060903
RWRCTP

REGIONAL WEATHER ROUNDUP
NATIONAL WEATHER SERVICE STATE COLLEGE PA
400 AM EST FRI MAR 06 2015

Note: "fair" indicates few or no clouds below 12,000 feet with no
significant weather and/or obstructions to visibility.

* = STATION THAT DOES NOT REPORT PRECIPITATION /E.G. RAIN...SNOW...ETC/
    THUNDER OR FOG.

PAZ002>004-007>009-013>016-020>023-029>032-061000-
WESTERN PENNSYLVANIA

CITY           SKY/WX    TMP DP  RH WIND       PRES   REMARKS
ERIE           PTCLDY     0  -7  72 S5        30.50S WCI -10
MEADVILLE      MOCLDY    -2  -6  83 S6        30.43S WCI -14
FRANKLIN*      MOCLDY    -6  -9  84 SW5       30.43S WCI -17
NEW CASTLE     FAIR      -6 -10  83 CALM      30.50S
BEAVER COUNTY  NOT AVBL
BUTLER*        PTCLDY    -4  -9  77 CALM      30.48S
PITTSBURGH INT PTCLDY     0  -5  79 CALM      30.48R
PITTSBURGH     PTCLDY     5  -2  72 S6        30.47S WCI  -6
INDIANA*       CLEAR     -6  -9  84 CALM      30.48F
LATROBE        PTCLDY    -2  -4  92 CALM      30.51R
WASHINGTON CO* PTCLDY    -8 -13  77 CALM      30.49S
$$

PAZ004>006-010>012-017>019-024>028-033>037-041-042-045-046-049>053-061000-
CENTRAL PENNSYLVANIA

CITY           SKY/WX    TMP DP  RH WIND       PRES   REMARKS
BRADFORD       PTCLDY    -5 -10  79 CALM      30.33R
DUBOIS         PTCLDY    -2  -6  83 W6        30.38R WCI -14
CLEARFIELD     PTCLDY    -3  -7  82 CALM      30.42S
JOHNSTOWN      PTCLDY     1  -4  79 W7        30.33R WCI -12
ALTOONA        PTCLDY     4  -4  69 NW7       30.42S WCI  -8
STATE COLLEGE  PTCLDY     4  -4  68 CALM      30.44S
WILLIAMSPORT   PTCLDY     7  -4  60 W7        30.50R WCI  -5
SELINSGROVE    CLEAR      0  -6  76 N5        30.51R WCI -10
FT INDIANTOWN  PTCLDY     9  -3  58 N7        30.48R WCI  -2
CAPITAL CITY   PTCLDY    12  -1  56 N6        30.49S WCI   3
HARRISBURG     PTCLDY    12  -1  56 CALM      30.49S
YORK           MOCLDY    -1  -7  75 NW6       30.46S WCI -13
$$

PAZ038>040-043-044-047-048-054-055-060>062-067>071-061000-
EASTERN PENNSYLVANIA

CITY           SKY/WX    TMP DP  RH WIND       PRES   REMARKS
SCRANTON       PTCLDY     7  -4  60 N7        30.42R WCI  -5
MOUNT POCONO   CLEAR      2  -4  76 N14G20    30.27R WCI -16
ALLENTOWN      CLEAR      5  -6  60 CALM      30.47R
QUAKERTOWN*    SUNNY      7   0  72 NW3       30.45R
READING        CLEAR     10  -1  61 NW8       30.48R WCI  -2
LANCASTER      PTCLDY     9  -1  64 N10       30.47R WCI  -5
COATESVILLE    MOSUNNY   10   1  67 N9        30.44S WCI  -2
POTTSTOWN      PTCLDY     8   0  69 NW3       30.49R
BLUE BELL      CLEAR     12   3  67 CALM      30.46R
DOYLESTOWN     CLEAR      9   1  70 N7        30.44R WCI  -2
WILLOW GROVE   NOT AVBL
NORTH PHILA    CLEAR     11   2  67 N8        30.48R WCI  -1
PHILADELPHIA   CLEAR     14   4  64 N9        30.49R WCI   2
$$


USA.gov is the U.S. government's official web portal to all federal, state and local government web resources and services.